SCP
0 0 0 0 0 0 0 0 0 0 0 0 0 0 0 0 0 0 0 0 0 0 0 0 0 0 0 0 0 0 0 0 0 0 0 0 0 0 0 0 -0 -0 0 0
0 0 0 0 0 0 0 0 0 0 0 0 0 0 0 0 0 0 0 0 0 0 0 0 0 0 0 0 0 0 0 0 0 0 0 0 0 0 0 -0 -0 -0 0 0
0 0 0 0 0 0 0 0 0 0 0 0 0 0 0 0 0 0 0 0 0 0 0 0 0 0 0 0 0 0 0 0 0 0 0 0 0 0 -0 -0 0 0 0 0
0 0 0 0 0 0 0 0 0 0 0 0 0 0 0 0 0 0 0 0 0 0 0 0 0 0 0 0 0 0 0 0 0 0 0 0 0 0 0 0 0 0 0 0
0 0 0 0 0 0 0 0 0 0 0 0 0 0 0 0 0 0 0 0 0 0 0 0 0 0 0 0 0 0 0 0 0 0 0 0 0 0 0 0 0 0 0 0
0 0 0 0 0 0 0 0 0 0 0 0 0 0 0 0 0 0 0 0 0 0 0 0 0 0 0 0 0 0 0 0 0 0 0 0 0 0 0 0 0 0 0 0
0 0 0 0 0 0 0 0 0 0 0 0 0 0 0 0 0 0 0 0 0 0 0 0 0 0 0 0 0 0 0 0 0 0 0 0 0 0 0 0 0 0 0 0
0 0 0 0 0 0 0 0 0 0 0 0 0 0 0 0 0 0 0 0 0 0 0 0 0 0 0 0 0 0 0 0 0 0 0 0 0 0 0 0 0 0 0 0
0 0 0 0 0 0 0 0 0 0 0 0 0 0 0 0 0 0 0 0 0 0 0 0 0 0 0 0 0 0 0 0 0 0 0 0 0 0 0 0 0 0 0 0
0 0 0 0 0 0 0 0 0 0 0 0 0 0 0 0 0 0 0 0 0 0 0 0 0 0 0 0 0 0 0 0 0 0 0 0 0 0 0 0 0 0 0 0
0 0 0 0 0 0 0 0 0 0 0 0 0 0 0 0 0 0 0 0 0 0 0 0 0 0 0 0 0 0 0 0 0 0 0 0 0 0 0 0 0 0 0 0
0 0 0 0 0 0 0 0 0 0 0 0 0 0 0 0 0 0 0 0 0 0 0 0 0 0 0 0 0 0 0 0 0 0 0 0 0 0 0 0 0 0 0 0
0 0 0 0 0 0 0 0 0 0 0 0 0 0 0 0 0 0 0 0 0 0 0 0 0 0 0 0 0 0 0 0 0 0 0 0 0 0 0 0 0 0 0 0
0 0 0 0 0 0 0 0 0 0 0 0 0 0 0 0 0 0 0 0 0 0 0 0 0 0 0 0 0 0 0 0 0 0 0 0 0 0 0 0 0 0 0 0
0 0 0 0 0 0 0 0 0 0 0 0 0 0 0 0 0 0 0 0 0 0 0 0 0 0 0 0 0 0 0 0 0 0 0 0 0 0 0 0 0 0 0 0
0 0 0 0 0 0 0 0 0 0 0 0 0 0 0 0 0 0 0 0 0 0 0 0 0 0 0 0 0 0 0 0 0 0 0 0 0 0 0 0 0 0 0 0
0 0 0 0 0 0 0 0 0 0 0 0 0 0 0 0 0 0 0 0 0 0 0 0 0 0 0 0 0 0 0 0 0 0 0 0 0 0 0 0 0 0 0 0
0 0 0 0 0 0 0 0 0 0 0 0 0 0 0 0 0 0 0 0 0 0 0 0 0 0 0 0 0 0 0 0 0 0 0 0 0 0 0 0 0 0 0 0
0 0 0 0 0 0 0 0 0 0 0 0 0 0 0 0 0 0 0 0 0 0 0 0 0 0 0 0 0 0 0 0 0 0 0 0 0 0 0 0 0 0 0 0
0 0 0 0 0 0 0 0 0 0 0 0 0 0 0 0 0 0 0 0 0 0 0 0 0 0 0 0 0 0 0 0 0 0 0 0 0 0 0 0 0 0 0 0
0 0 0 0 0 0 0 0 0 0 0 0 0 0 0 0 0 0 0 0 0 0 0 0 0 0 0 0 0 0 0 0 0 0 0 0 0 0 0 0 0 0 0 0
0 0 0 0 0 0 0 0 0 0 0 0 0 0 0 0 0 0 0 0 0 0 0 0 0 0 0 0 0 0 0 0 0 0 0 0 0 0 0 0 0 0 0 0
0 0 0 0 0 0 0 0 0 0 0 0 0 0 0 0 0 0 0 0 0 0 0 0 0 0 0 0 0 0 0 0 0 0 0 0 0 0 0 0 0 0 0 0
0 0 0 0 0 0 0 0 0 0 0 0 0 0 0 0 0 0 0 0 0 0 0 0 0 0 0 0 0 0 0 0 0 0 0 0 0 0 0 0 0 0 0 0
0 0 0 0 0 0 0 0 0 0 0 0 0 0 0 0 0 0 0 0 0 0 0 0 0 0 0 0 0 0 0 0 0 0 0 0 0 0 0 0 0 0 0 0
0 0 0 0 0 0 0 0 0 0 0 0 0 0 0 0 0 0 0 0 0 0 0 0 0 0 0 0 0 0 0 0 0 0 0 0 0 0 0 0 0 0 0 0
0 0 0 0 0 0 0 0 0 0 0 0 0 0 0 0 0 0 0 0 0 0 0 0 0 0 0 0 0 0 0 0 0 0 0 0 0 0 0 0 0 0 0 0
Wind_Speed
2 2 2 1 1 2 3 5 5 4 3 6 6 5 6 6 7 7 7 7 6 6 5 5 6 6 6 6 7 6 7 7 7 7 7 7 8 8 8 8 9 8 8 8
2 1 2 0 1 2 2 3 3 2 4 6 5 3 4 5 6 6 7 7 7 6 6 5 5 5 5 5 6 5 6 6 6 6 7 7 7 7 8 8 8 8 9 8
0 1 3 5 7 7 4 4 6 6 6 3 2 4 4 4 5 6 6 6 6 6 5 5 4 4 4 4 4 5 6 6 6 6 6 6 6 7 7 7 7 8 8 8
3 2 4 7 3 7 5 5 7 6 5 5 5 4 4 4 4 5 6 5 6 6 6 4 3 3 2 3 4 4 5 5 6 6 6 6 6 6 6 5 6 6 7 8
3 2 7 5 4 7 6 5 8 8 6 4 2 2 4 3 2 3 4 4 4 4 4 4 4 3 2 3 4 4 4 5 5 5 5 6 6 5 5 5 6 6 6 8
4 2 5 6 4 6 5 5 7 9 8 5 5 1 5 4 3 3 4 3 4 5 4 4 4 3 2 3 3 3 3 3 4 5 5 5 5 4 4 4 5 5 6 6
4 4 9 6 6 9 5 9 5 9 8 8 8 7 4 3 2 2 3 4 4 5 4 5 5 2 2 3 3 2 2 3 4 5 5 5 4 4 4 4 5 6 6 6
5 4 10 5 10 10 12 3 6 8 8 8 7 5 4 2 1 3 3 4 4 5 5 5 5 3 3 3 2 1 3 4 5 5 4 4 5 5 5 5 6 6 6 6
10 10 6 9 9 7 6 6 7 8 7 8 6 4 3 1 0 2 3 3 3 4 4 5 5 4 4 4 1 2 4 4 4 5 5 4 4 5 5 5 5 5 5 6
5 8 6 8 5 4 6 7 7 8 8 8 6 5 4 2 1 1 2 2 3 3 4 5 5 5 4 3 1 3 4 3 3 3 4 4 4 4 4 4 5 5 5 6
6 7 3 5 9 8 6 5 6 6 7 8 8 6 5 3 2 1 1 2 2 2 3 4 5 5 5 3 2 3 3 3 3 2 2 2 2 2 2 2 2 3 3 3
9 8 8 7 9 10 9 8 9 9 7 5 7 7 5 4 3 2 1 1 2 2 2 3 4 5 5 3 1 3 2 2 2 1 1 1 1 2 2 1 3 5 5 4
5 5 6 2 6 10 10 10 10 10 9 7 6 6 5 4 3 3 2 2 2 2 3 3 3 4 5 4 1 2 2 2 2 2 2 1 1 1 2 3 4 5 8 8
4 5 4 5 7 10 9 9 9 8 7 7 6 5 5 4 3 4 3 3 2 2 2 2 3 4 5 4 1 1 2 3 3 2 2 2 2 1 1 1 2 3 4 7
9 7 6 5 6 8 7 8 8 7 7 6 6 6 6 6 5 5 4 2 2 2 2 2 2 4 4 4 1 0 1 1 2 2 2 2 2 2 1 0 0 1 2 3
7 5 4 5 8 9 9 9 10 10 8 8 7 7 7 7 5 4 3 3 3 3 3 3 3 4 4 3 2 1 1 2 2 2 2 2 2 2 2 1 1 1 1 1
9 8 8 7 9 10 11 11 11 11 9 9 9 8 6 5 4 4 5 4 4 4 4 4 3 3 3 2 1 1 1 2 2 2 2 3 3 3 3 2 2 2 2 2
11 11 10 10 11 11 11 10 10 10 10 10 8 7 7 7 7 7 6 3 3 3 4 5 4 3 2 1 1 1 1 1 1 2 2 3 3 3 3 3 3 3 2 1
9 9 9 9 9 11 11 11 10 10 9 8 9 9 9 9 8 7 4 4 5 5 6 5 6 4 3 3 1 1 2 2 2 2 2 3 3 3 3 4 4 4 3 2
9 7 8 8 7 8 9 9 9 9 8 8 8 8 7 8 7 6 6 6 7 6 5 4 4 4 4 3 2 1 2 3 3 3 2 2 3 3 4 4 4 4 4 4
7 7 7 8 8 7 8 9 9 9 8 9 9 9 9 8 7 6 5 6 7 7 6 7 5 4 4 4 3 2 2 3 3 3 3 3 3 4 4 4 4 4 4 4
3 4 5 5 6 5 5 6 7 8 8 8 9 8 7 7 7 6 7 7 6 6 6 4 5 7 7 6 3 3 3 3 3 3 3 3 3 4 4 5 5 5 5 5
4 3 3 3 4 3 3 4 5 6 7 8 9 9 9 8 6 6 7 7 6 8 6 5 8 11 10 5 4 4 4 4 4 4 4 4 4 4 4 5 5 5 5 5
7 7 5 4 5 5 3 0 2 3 4 5 6 7 7 5 5 7 6 4 7 9 7 8 12 13 11 5 4 4 4 4 4 4 4 4 4 4 4 4 5 5 5 6
7 8 8 8 7 5 3 3 2 1 0 1 3 4 4 5 6 5 5 6 9 8 6 8 13 13 7 5 5 5 5 5 5 4 4 4 4 4 4 4 5 5 5 5
6 5 5 5 4 3 3 3 3 3 2 2 2 2 2 3 4 4 3 5 7 8 6 5 5 7 5 6 6 6 6 5 5 5 5 5 5 5 4 5 6 5 5 5
4 3 3 3 3 3 3 3 3 3 3 2 3 3 2 2 2 3 4 4 4 5 5 5 5 5 5 6 6 6 5 5 5 5 5 5 5 5 5 5 5 4 4 5
Wind_Direction
87 97 105 97 98 117 123 159 164 211 244 266 276 285 297 309 323 334 339 341 342 340 339 342 348 351 355 359 1 5 16 20 14 13 19 24 27 28 31 35 38 34 36 31
51 65 79 49 200 149 149 170 187 219 263 253 260 275 294 308 323 330 331 334 337 337 339 340 344 344 351 356 357 6 17 15 11 17 22 23 25 28 31 30 29 33 30 26
206 18 12 278 218 192 198 197 178 203 235 246 258 275 282 294 307 310 313 322 330 328 324 321 325 331 340 342 356 15 18 15 15 20 24 20 26 31 28 25 28 31 25 22
116 90 262 249 208 173 184 213 201 216 233 223 230 259 273 266 276 299 312 323 324 322 320 316 316 329 337 356 11 21 21 18 16 21 24 23 31 31 23 22 26 25 23 19
122 201 279 279 188 169 175 243 206 203 224 228 220 352 312 277 272 281 297 305 303 307 306 312 319 328 357 5 11 24 24 22 20 25 30 30 32 26 19 28 30 25 19 19
131 191 249 252 195 149 109 268 214 185 199 186 133 110 271 284 308 316 328 329 331 333 338 344 334 338 13 359 6 13 19 34 38 41 43 37 33 29 24 32 27 19 20 17
162 227 262 242 147 120 151 242 201 176 180 169 180 204 231 294 313 332 343 348 354 358 358 343 337 360 12 359 349 353 59 65 55 49 51 43 38 32 30 29 27 20 14 8
159 206 258 189 147 180 210 208 166 171 173 177 202 225 244 264 310 359 358 355 360 2 355 349 359 18 11 351 331 68 91 80 65 51 48 47 47 38 31 27 29 20 12 8
188 212 230 187 193 200 168 169 176 173 178 177 187 209 213 206 311 353 357 356 356 359 357 358 3 12 3 333 344 104 100 92 78 66 53 47 50 44 35 30 30 21 14 8
244 258 234 220 232 197 182 181 177 171 167 167 179 192 192 188 221 322 339 347 350 360 3 352 348 356 348 334 48 114 114 112 96 80 60 45 45 46 45 34 28 20 13 5
250 266 259 230 209 198 187 171 156 159 168 173 174 183 185 192 213 244 300 326 344 350 341 335 340 347 349 356 75 111 121 127 115 99 85 53 41 36 41 23 12 7 351 347
218 214 190 223 199 178 168 173 170 164 169 176 176 180 178 189 203 210 243 293 328 336 333 333 341 343 345 351 62 134 135 147 154 151 136 88 10 347 335 332 10 28 24 22
201 189 182 231 177 172 176 177 172 171 171 174 180 177 172 183 196 203 223 255 287 303 307 320 338 340 340 343 7 153 165 173 175 184 194 203 236 327 337 343 14 36 31 35
179 137 167 193 184 181 177 175 170 172 174 170 166 167 167 175 188 204 225 239 253 282 299 310 329 331 331 336 358 142 167 182 181 199 209 211 216 226 249 342 346 340 1 29
196 189 192 184 164 166 165 156 161 174 174 172 169 169 173 182 200 217 225 228 230 271 292 298 312 317 327 337 355 127 173 197 192 201 209 205 200 192 185 181 328 325 338 359
182 179 161 159 170 170 164 170 177 185 183 180 181 189 192 194 202 215 225 210 207 244 265 265 277 297 319 336 352 359 264 257 210 198 203 192 189 186 186 193 229 285 311 319
155 180 188 190 188 185 185 183 185 185 183 186 194 194 188 185 201 225 233 222 218 236 244 231 248 290 312 333 350 323 295 291 272 209 210 206 203 204 201 199 216 237 254 258
196 190 182 181 184 188 192 188 184 182 186 194 190 179 181 190 209 223 224 213 220 253 248 229 234 266 277 300 332 331 311 285 267 248 237 221 213 206 199 204 216 226 237 248
202 195 191 191 184 182 186 188 189 190 189 182 179 187 197 205 213 216 195 188 211 240 252 232 224 228 239 256 279 312 311 298 286 270 252 241 225 208 204 207 214 217 215 209
198 194 190 191 182 179 186 186 182 186 188 181 183 191 203 215 212 201 188 206 219 216 220 212 206 217 229 239 242 268 293 293 286 282 266 241 228 222 215 213 213 214 212 209
187 184 183 184 187 190 189 181 179 188 189 181 185 196 207 215 202 184 183 226 244 219 216 220 208 214 217 217 223 239 272 281 280 275 269 255 241 233 226 221 218 215 212 209
153 166 174 176 179 191 192 181 185 191 186 189 197 201 204 211 200 195 209 221 233 198 194 207 208 215 214 207 202 224 251 264 267 266 264 256 245 240 235 228 223 220 214 208
65 93 121 147 167 173 155 170 189 191 193 197 200 200 204 207 190 186 225 230 214 207 199 210 215 220 219 208 201 216 236 250 256 257 258 256 249 242 239 235 227 221 214 210
46 52 61 74 86 87 88 154 200 199 205 212 212 209 202 204 214 219 223 225 195 201 205 219 222 223 217 195 200 212 225 236 244 248 255 258 256 250 244 238 233 225 218 214
41 47 50 55 58 49 27 21 52 59 187 240 246 229 211 200 211 223 212 218 217 212 214 227 228 224 209 196 202 211 219 228 232 233 240 251 256 255 249 241 234 228 220 216
35 42 47 56 57 42 34 43 48 33 27 355 315 280 247 232 231 234 223 221 219 214 213 218 219 217 204 204 210 215 220 233 243 240 236 241 249 251 250 246 241 231 225 220
30 39 42 40 32 31 37 44 42 24 12 357 321 315 302 271 244 235 231 227 222 220 219 217 210 207 208 210 215 218 220 222 227 230 233 235 239 242 246 247 243 236 227 221